Location: East Irvine
(33.6759°N, 117.7598°W)
Time: 01:15:25
(UTC+00:00)

OAO 3 Rocket - Pass Details

Date: 15 November 2025
Orbit: 613 x 662 km, 35.0° (Epoch: 07 December)

Event Time Altitude Azimuth Distance (km) Brightness Sun altitude
Rises 02:18:28 0° 262° (W) 2,905 8.2 -18.8°
Reaches altitude 10° 02:20:49 10° 263° (W) 1,991 6.9 -19.3°
Maximum altitude 02:25:26 83° 350° (N) 626 3.0 -20.3°
Enters shadow 02:26:30 53° 72° (ENE) 761 3.1 -20.5°
